Torna al catalogo

STARLINK-36650

AttivoComunicazioniVLEO
NORAD 67836·PAYLOAD·🇺🇸 United States

Lanciato Feb 16, 2026 da Vandenberg Space Force Base

Loading…

Prossimi Passaggi (prossime 24 ore)

TLE

AggiornatoSource: CelesTrak SupGP

Epoca: Sep 15, 2026, 04:07 UTC

1 67836C 26033R   26258.17201389 -.00023036  00000+0 -83411-3 0  2581
2 67836  43.0021 277.1443 0001498 268.8348 348.9169 15.27598878    12

Traccia STARLINK-36650 in tempo reale con AllMySat

Download on the App Store